When you browse on this site, cookies collect data to enhance your experience and personalize the content and advertising you see.
Visit our Privacy Policy to learn more. By continuing to use the site, you agree to this use of cookies and data.
  • In France
  • List of Countries
  • For 7 days
  • Water Temperature
  • Satellite Maps
  • Weather Map
  • Weather Widgets
  • user-avatar
    Login

    Hourly Weather Ibagué

    Today, 20 November, Tuesday

    Time Temperature Precipitation Wind Pressure Humidity
    00:00 +18°C° 0 mm 0 mps 648 mmHg 80%
    01:00 +18°C° 0 mm 0 mps 648 mmHg 81%
    02:00 +18°C° 0.1 mm 0 mps 648 mmHg 82%
    03:00 +18°C° 0.1 mm 0 mps 648 mmHg 82%
    04:00 +17°C° 0.1 mm 0 mps 648 mmHg 83%
    05:00 +18°C° 0 mm 0 mps 648 mmHg 81%
    06:00 +18°C° 0 mm 0 mps 649 mmHg 80%
    07:00 +21°C° 0 mm 1 mps 649 mmHg 76%
    08:00 +23°C° 0 mm 1 mps 650 mmHg 68%
    09:00 +25°C° 0 mm 2 mps 650 mmHg 61%
    10:00 +27°C° 0 mm 2 mps 651 mmHg 53%
    11:00 +28°C° 0 mm 2 mps 650 mmHg 51%
    12:00 +29°C° 0 mm 2 mps 650 mmHg 48%
    13:00 +29°C° 0 mm 2 mps 649 mmHg 46%
    14:00 +29°C° 0 mm 2 mps 649 mmHg 48%
    15:00 +28°C° 0 mm 2 mps 649 mmHg 50%
    16:00 +28°C° 0 mm 2 mps 648 mmHg 53%
    17:00 +26°C° 0.1 mm 1 mps 648 mmHg 59%
    18:00 +24°C° 0.1 mm 1 mps 648 mmHg 66%
    19:00 +22°C° 0.1 mm 1 mps 648 mmHg 73%
    20:00 +22°C° 0 mm 1 mps 649 mmHg 73%
    21:00 +22°C° 0 mm 1 mps 649 mmHg 74%
    22:00 +21°C° 0 mm 1 mps 649 mmHg 74%
    23:00 +21°C° 0 mm 1 mps 649 mmHg 76%

    Tomorrow, 21 November, Wednesday

    Time Temperature Precipitation Wind Pressure Humidity
    00:00 +21°C° 0 mm 1 mps 649 mmHg 77%
    01:00 +18°C° 0 mm 0 mps 649 mmHg 78%
    02:00 +18°C° 0.1 mm 0 mps 649 mmHg 79%
    03:00 +18°C° 0.1 mm 0 mps 649 mmHg 80%
    04:00 +18°C° 0.1 mm 0 mps 648 mmHg 81%
    05:00 +18°C° 0 mm 0 mps 649 mmHg 80%
    06:00 +18°C° 0 mm 0 mps 649 mmHg 79%
    07:00 +19°C° 0 mm 0 mps 650 mmHg 78%
    08:00 +22°C° 0 mm 1 mps 650 mmHg 72%
    09:00 +24°C° 0 mm 1 mps 651 mmHg 65%
    10:00 +26°C° 0 mm 1 mps 652 mmHg 58%
    11:00 +27°C° 0 mm 1 mps 651 mmHg 56%
    12:00 +28°C° 0 mm 2 mps 650 mmHg 53%
    13:00 +28°C° 0 mm 2 mps 650 mmHg 50%
    14:00 +28°C° 0.1 mm 2 mps 649 mmHg 53%
    15:00 +27°C° 0.1 mm 1 mps 649 mmHg 55%
    16:00 +27°C° 0.1 mm 1 mps 648 mmHg 57%
    17:00 +25°C° 0 mm 1 mps 648 mmHg 63%
    18:00 +24°C° 0 mm 1 mps 648 mmHg 68%
    19:00 +22°C° 0 mm 1 mps 648 mmHg 73%
    20:00 +22°C° 0.1 mm 1 mps 649 mmHg 74%
    21:00 +21°C° 0.1 mm 1 mps 649 mmHg 75%
    22:00 +21°C° 0.1 mm 1 mps 649 mmHg 75%
    23:00 +21°C° 0.1 mm 1 mps 649 mmHg 76%

    Day after tomorrow, 22 November, Thursday

    Time Temperature Precipitation Wind Pressure Humidity
    00:00 +20°C° 0.1 mm 1 mps 649 mmHg 77%
    01:00 +18°C° 0.1 mm 0 mps 649 mmHg 79%
    02:00 +18°C° 0 mm 0 mps 648 mmHg 79%
    03:00 +17°C° 0 mm 0 mps 648 mmHg 80%
    04:00 +17°C° 0 mm 0 mps 648 mmHg 81%
    05:00 +18°C° 0.1 mm 0 mps 648 mmHg 80%
    06:00 +18°C° 0.1 mm 0 mps 649 mmHg 79%
    07:00 +19°C° 0.1 mm 0 mps 649 mmHg 78%
    08:00 +20°C° 0 mm 0 mps 650 mmHg 72%
    09:00 +24°C° 0 mm 1 mps 651 mmHg 66%
    10:00 +25°C° 0 mm 1 mps 652 mmHg 61%
    11:00 +26°C° 0.1 mm 1 mps 651 mmHg 59%
    12:00 +26°C° 0.1 mm 1 mps 650 mmHg 57%
    13:00 +27°C° 0.1 mm 1 mps 650 mmHg 56%
    14:00 +26°C° 0.2 mm 1 mps 649 mmHg 58%
    15:00 +26°C° 0.2 mm 1 mps 648 mmHg 60%
    16:00 +25°C° 0.2 mm 1 mps 648 mmHg 62%
    17:00 +24°C° 0.2 mm 1 mps 648 mmHg 66%
    18:00 +23°C° 0.2 mm 1 mps 648 mmHg 70%
    19:00 +21°C° 0.2 mm 1 mps 648 mmHg 75%
    20:00 +21°C° 0.2 mm 1 mps 649 mmHg 76%
    21:00 +21°C° 0.2 mm 1 mps 649 mmHg 77%
    22:00 +20°C° 0.2 mm 1 mps 649 mmHg 78%
    23:00 +20°C° 0.3 mm 1 mps 649 mmHg 79%

    23 November, Friday

    Time Temperature Precipitation Wind Pressure Humidity
    00:00 +20°C° 0.3 mm 1 mps 649 mmHg 80%
    01:00 +20°C° 0.3 mm 1 mps 648 mmHg 81%
    02:00 +19°C° 0.3 mm 1 mps 648 mmHg 82%
    03:00 +17°C° 0.3 mm 0 mps 648 mmHg 83%
    04:00 +17°C° 0.3 mm 0 mps 648 mmHg 84%
    05:00 +17°C° 0.3 mm 0 mps 648 mmHg 84%
    06:00 +17°C° 0.3 mm 0 mps 648 mmHg 85%
    07:00 +17°C° 0.3 mm 0 mps 649 mmHg 85%
    08:00 +18°C° 0.3 mm 0 mps 649 mmHg 83%
    09:00 +21°C° 0.3 mm 1 mps 650 mmHg 81%
    10:00 +22°C° 0.3 mm 1 mps 650 mmHg 79%
    11:00 +22°C° 0.2 mm 1 mps 650 mmHg 76%
    12:00 +23°C° 0.2 mm 1 mps 649 mmHg 72%
    13:00 +24°C° 0.2 mm 1 mps 649 mmHg 69%
    14:00 +24°C° 0.2 mm 1 mps 648 mmHg 70%
    15:00 +24°C° 0.2 mm 1 mps 648 mmHg 70%
    16:00 +24°C° 0.2 mm 1 mps 647 mmHg 70%
    17:00 +22°C° 0.1 mm 1 mps 647 mmHg 75%
    18:00 +21°C° 0.1 mm 1 mps 648 mmHg 79%
    19:00 +20°C° 0.1 mm 1 mps 648 mmHg 83%
    20:00 +20°C° 0.2 mm 1 mps 648 mmHg 83%
    21:00 +20°C° 0.2 mm 1 mps 649 mmHg 84%
    22:00 +19°C° 0.2 mm 1 mps 649 mmHg 84%
    23:00 +19°C° 0.2 mm 1 mps 649 mmHg 85%

    24 November, Saturday

    Time Temperature Precipitation Wind Pressure Humidity
    00:00 +19°C° 0.2 mm 1 mps 648 mmHg 85%
    01:00 +18°C° 0.2 mm 1 mps 648 mmHg 85%
    02:00 +16°C° 0.3 mm 0 mps 648 mmHg 86%
    03:00 +16°C° 0.3 mm 0 mps 648 mmHg 87%
    04:00 +16°C° 0.3 mm 0 mps 647 mmHg 88%
    05:00 +16°C° 0.3 mm 0 mps 648 mmHg 88%
    06:00 +16°C° 0.3 mm 0 mps 648 mmHg 88%
    07:00 +17°C° 0.3 mm 0 mps 649 mmHg 88%
    08:00 +18°C° 0.3 mm 0 mps 649 mmHg 83%
    09:00 +21°C° 0.3 mm 1 mps 650 mmHg 78%
    10:00 +23°C° 0.3 mm 1 mps 650 mmHg 73%
    11:00 +24°C° 0.1 mm 1 mps 650 mmHg 68%
    12:00 +25°C° 0.1 mm 1 mps 649 mmHg 62%
    13:00 +26°C° 0.1 mm 1 mps 649 mmHg 57%
    14:00 +26°C° 0 mm 1 mps 648 mmHg 57%
    15:00 +26°C° 0 mm 1 mps 648 mmHg 57%
    16:00 +26°C° 0 mm 1 mps 647 mmHg 56%
    17:00 +24°C° 0 mm 1 mps 647 mmHg 62%
    18:00 +23°C° 0 mm 1 mps 647 mmHg 68%
    19:00 +21°C° 0 mm 1 mps 647 mmHg 73%
    20:00 +21°C° 0 mm 1 mps 648 mmHg 74%
    21:00 +20°C° 0 mm 1 mps 648 mmHg 75%
    22:00 +20°C° 0 mm 1 mps 649 mmHg 75%
    23:00 +20°C° 0.4 mm 1 mps 649 mmHg 78%

    25 November, Sunday

    Time Temperature Precipitation Wind Pressure Humidity
    00:00 +20°C° 0.4 mm 1 mps 648 mmHg 80%
    01:00 +17°C° 0.4 mm 0 mps 648 mmHg 83%
    02:00 +17°C° 0.7 mm 0 mps 648 mmHg 85%
    03:00 +17°C° 0.7 mm 0 mps 648 mmHg 86%
    04:00 +16°C° 0.7 mm 0 mps 647 mmHg 88%
    05:00 +17°C° 0.6 mm 0 mps 648 mmHg 87%
    06:00 +17°C° 0.6 mm 0 mps 649 mmHg 86%
    07:00 +17°C° 0.6 mm 0 mps 649 mmHg 85%
    08:00 +20°C° 0.4 mm 1 mps 649 mmHg 82%
    09:00 +22°C° 0.4 mm 1 mps 650 mmHg 78%
    10:00 +23°C° 0.4 mm 1 mps 650 mmHg 74%
    11:00 +24°C° 0.2 mm 1 mps 650 mmHg 70%
    12:00 +25°C° 0.2 mm 1 mps 649 mmHg 66%
    13:00 +26°C° 0.2 mm 1 mps 649 mmHg 61%
    14:00 +25°C° 0.2 mm 1 mps 648 mmHg 62%
    15:00 +25°C° 0.2 mm 1 mps 647 mmHg 63%
    16:00 +25°C° 0.2 mm 1 mps 647 mmHg 64%
    17:00 +24°C° 0 mm 1 mps 647 mmHg 68%
    18:00 +22°C° 0 mm 1 mps 647 mmHg 73%
    19:00 +21°C° 0 mm 1 mps 647 mmHg 77%
    20:00 +20°C° 0 mm 1 mps 648 mmHg 77%
    21:00 +20°C° 0 mm 1 mps 648 mmHg 76%
    22:00 +20°C° 0 mm 1 mps 649 mmHg 76%
    23:00 +20°C° 0 mm 1 mps 648 mmHg 77%
    Show more